Temperature
18 19 19 19 19 17 17 16 16 17 16 17 16 16 16 17 17 17 18 18 18 18 18 17 17 17 17 17 17 16 16 16 16 15 15 15 14 14 14 14 14 13 13 13
19 19 19 19 19 18 18 17 17 17 17 17 16 16 16 16 17 17 18 18 18 18 18 17 17 17 17 17 16 16 16 16 15 15 15 15 14 14 14 14 13 13 13 13
17 18 19 18 18 18 18 17 17 17 17 16 15 15 16 17 17 18 18 18 18 18 18 17 17 17 17 16 16 16 16 15 15 15 15 14 14 14 14 13 13 13 13 13
15 18 18 18 18 18 18 17 17 17 16 16 16 17 17 18 18 18 18 18 18 18 18 17 17 17 17 16 16 16 15 15 15 15 14 14 14 14 13 13 13 13 12 12
14 16 17 18 18 18 18 18 17 16 15 16 16 16 16 17 18 18 18 18 18 18 17 17 17 17 16 16 16 15 15 15 15 14 14 14 14 13 13 13 13 12 12 12
14 17 17 18 18 18 18 18 17 16 15 15 16 15 15 18 18 18 18 18 18 17 17 17 16 16 16 16 15 15 15 14 14 14 14 14 13 13 12 12 12 12 12 12
14 15 15 16 17 18 18 18 18 17 16 16 16 17 18 18 18 18 18 17 17 17 17 16 16 16 16 15 15 15 14 14 14 13 13 13 13 12 12 12 12 12 11 11
13 15 16 17 17 17 17 18 18 18 18 17 18 18 18 18 18 17 17 17 17 17 16 16 16 15 15 15 15 14 14 14 13 13 13 13 12 12 12 12 11 11 11 11
14 15 16 16 17 19 19 19 19 19 18 18 18 18 18 17 17 17 17 17 16 16 16 15 15 15 15 14 14 14 14 13 13 13 12 12 12 12 11 11 11 11 11 11
12 13 15 16 17 18 19 20 20 19 19 19 18 18 17 17 17 16 16 16 16 16 15 15 15 14 14 14 13 13 13 13 12 12 12 12 11 11 11 11 11 10 10 10
13 13 15 16 18 19 19 19 19 19 19 19 18 17 17 17 16 16 16 15 15 15 15 14 14 14 13 13 13 13 13 12 12 12 11 11 11 11 11 10 10 10 10 9
14 15 14 17 18 18 18 19 19 18 18 18 18 17 17 16 16 16 15 15 15 14 14 14 13 13 13 13 12 12 12 12 11 11 11 11 10 10 10 10 10 10 9 9
17 17 17 17 18 18 18 18 18 18 18 18 17 17 16 16 16 15 15 15 14 14 14 13 13 13 12 12 12 12 11 11 11 11 10 10 10 10 10 10 9 9 9 9
17 17 16 17 17 17 17 17 17 17 17 17 16 16 16 16 15 15 14 14 14 13 13 13 13 12 12 12 11 11 11 11 10 10 10 10 9 9 9 9 9 9 9 9
16 17 17 17 17 16 17 16 16 16 16 16 15 15 15 15 15 14 14 14 13 13 13 12 12 12 11 11 11 11 11 10 10 10 10 9 9 9 9 8 8 8 8 8
16 16 16 16 16 16 16 16 16 15 15 15 15 15 15 15 14 14 13 13 13 13 12 12 12 11 11 11 10 10 10 10 9 9 9 9 9 8 8 8 8 8 7 7
15 15 15 15 15 15 15 15 15 15 15 15 15 14 14 14 13 13 13 13 12 12 12 12 11 11 11 10 10 10 10 9 9 9 9 8 8 8 8 7 7 7 7 7
15 15 15 15 15 14 14 14 14 14 14 14 14 14 14 13 13 13 12 12 12 12 11 11 11 10 10 10 10 9 9 9 9 8 8 8 8 7 7 7 7 7 7 7
14 14 14 14 14 14 14 14 14 14 14 14 13 13 13 13 13 12 12 12 11 11 11 11 10 10 10 9 9 9 9 8 8 8 8 7 7 7 7 7 7 7 6 6
13 13 13 13 13 13 13 13 13 13 13 13 13 12 12 12 12 12 11 11 11 11 11 10 10 10 9 9 9 8 8 8 8 8 7 7 7 7 7 7 6 6 6 6
13 13 13 13 12 12 13 13 13 12 12 12 12 12 12 12 11 11 11 11 11 10 10 10 9 9 9 9 8 8 8 7 7 7 7 7 6 6 6 6 6 6 6 6
12 12 12 12 12 12 12 12 12 12 12 12 11 11 11 11 11 10 10 10 10 10 10 9 9 9 8 8 8 8 7 7 7 7 6 6 6 6 6 6 6 5 5 5
11 11 11 11 11 11 11 11 11 11 11 11 11 11 10 10 10 10 10 10 9 9 9 9 9 8 8 8 7 7 7 7 7 6 6 6 6 5 5 5 5 5 5 5
10 10 10 10 10 10 10 10 10 10 10 10 10 10 10 10 10 9 9 9 9 9 9 8 8 8 8 7 7 7 7 6 6 6 6 5 5 5 5 5 5 5 5 4
9 9 9 9 9 10 10 10 10 9 9 9 9 9 9 9 9 9 9 8 8 8 8 8 8 7 7 7 7 6 6 6 6 5 5 5 5 4 4 4 4 4 4 4
8 8 9 9 9 9 9 9 9 9 9 9 9 8 8 8 8 8 8 8 8 7 7 7 7 7 7 6 6 6 6 5 5 5 5 4 4 4 4 4 4 4 4 4
8 8 8 8 8 8 8 8 8 8 8 8 8 8 8 7 7 7 7 7 7 7 7 7 6 6 6 6 6 5 5 5 5 4 4 4 4 4 4 3 3 3 3 3
Wind_Speed
4 3 3 4 6 8 6 7 7 7 7 7 7 7 7 7 7 7 7 6 6 6 5 4 4 4 3 3 2 3 3 2 1 1 0 0 1 1 2 2 2 2 2 3
1 0 3 2 4 7 6 5 5 3 5 4 4 5 6 7 9 9 8 7 7 6 6 5 5 4 4 3 3 3 3 2 1 1 1 1 0 1 2 3 3 3 2 3
2 3 2 3 5 7 5 5 7 8 8 6 6 8 9 9 9 9 9 8 8 7 7 6 6 6 5 4 3 3 3 2 1 1 1 0 0 1 2 2 2 3 3 2
2 2 3 7 3 4 5 4 5 5 4 9 8 7 4 5 9 9 8 8 7 6 6 5 4 4 5 4 4 4 2 1 1 1 1 1 1 1 1 1 1 1 2 3
4 3 5 7 3 5 5 4 5 6 5 6 7 6 2 2 6 7 7 7 6 6 6 6 5 5 6 5 4 4 2 1 1 2 1 1 0 0 0 1 1 2 2 3
5 4 6 7 3 3 5 3 5 8 9 9 9 5 5 5 6 6 6 6 6 6 6 6 5 6 7 5 4 3 3 2 1 1 2 1 1 1 0 0 1 2 3 3
5 4 7 7 3 5 5 7 5 9 10 11 9 7 6 8 7 6 6 7 7 7 6 5 6 7 7 5 3 3 2 2 2 1 1 1 0 0 0 0 1 2 3 4
6 4 8 3 6 7 7 2 5 8 9 9 6 6 8 9 8 8 7 7 7 7 6 4 5 7 6 4 3 2 3 2 1 0 0 1 1 1 1 0 1 2 3 4
8 7 4 3 5 4 3 4 5 7 7 10 8 7 8 8 8 8 8 7 6 8 7 4 4 6 6 4 3 4 3 2 1 1 0 0 1 0 0 0 0 2 2 4
3 6 5 4 4 3 3 4 4 7 9 10 9 9 9 9 8 7 7 7 7 8 7 5 4 4 4 4 4 4 3 2 1 1 0 1 0 1 1 1 1 2 3 4
3 5 4 4 3 3 2 4 6 6 7 10 11 10 9 9 8 8 7 6 7 7 7 5 4 3 3 4 5 4 3 2 1 1 1 1 1 2 2 3 3 3 4 4
7 7 6 5 3 3 5 5 7 8 6 6 9 10 9 8 8 8 7 6 6 6 6 5 4 3 3 3 4 5 3 2 1 1 1 1 1 3 3 4 6 7 6 5
5 3 4 3 2 3 4 4 6 7 9 8 7 9 10 7 7 7 7 7 7 7 6 6 5 4 3 4 4 4 3 2 2 1 1 1 1 2 4 5 6 6 7 8
4 3 2 3 3 3 4 4 5 6 6 7 7 8 8 7 7 8 8 7 7 6 6 5 5 4 4 4 4 4 3 3 2 2 2 2 2 3 3 3 5 5 6 9
4 5 5 4 4 4 5 6 7 6 5 5 6 7 8 9 8 8 6 6 6 6 5 5 5 4 3 4 4 4 3 2 2 2 2 2 2 2 3 4 4 5 5 6
3 4 5 5 6 5 6 7 7 6 6 6 6 6 7 7 6 6 6 7 7 7 6 6 6 5 4 4 4 3 3 4 3 2 2 2 2 3 3 4 4 5 5 6
6 6 6 6 7 7 7 7 8 7 7 7 7 6 6 6 5 5 4 5 6 6 6 7 6 5 5 5 5 4 3 3 4 3 3 3 3 4 4 4 5 5 6 7
8 8 9 9 9 8 6 6 6 7 7 6 6 7 7 8 7 6 6 4 4 3 4 5 5 5 5 5 4 4 3 3 3 3 4 4 4 4 4 5 6 7 7 7
5 5 5 6 7 7 7 6 6 6 6 6 7 7 7 7 7 6 5 5 5 5 5 5 6 5 5 5 4 4 4 4 4 4 4 5 5 4 5 5 6 6 7 6
3 4 4 4 5 6 6 5 6 5 6 6 6 6 5 5 5 5 5 5 6 6 5 5 5 5 5 5 5 3 4 4 4 4 4 4 5 6 6 6 6 7 7 7
2 3 3 4 3 4 5 5 6 6 5 6 7 7 7 5 5 5 5 5 6 5 5 6 5 5 5 5 5 4 4 4 4 5 5 5 6 6 6 7 7 7 8 8
2 2 3 3 4 3 3 4 5 5 5 5 5 5 5 5 4 4 5 6 5 6 4 4 5 6 7 6 4 4 5 5 5 5 5 6 6 7 7 8 8 8 8 8
2 2 2 3 4 3 2 2 3 4 5 5 5 6 6 5 5 4 5 5 4 6 5 5 7 9 8 4 4 5 5 5 5 6 6 6 7 7 7 8 8 8 8 9
1 2 2 2 3 4 3 1 2 2 3 3 4 4 4 3 3 4 4 5 5 6 4 6 9 9 7 3 4 4 5 5 6 6 6 6 7 7 7 8 8 9 9 10
2 2 3 3 3 2 3 2 2 2 2 1 1 2 3 4 4 4 3 4 5 5 3 5 8 8 4 3 4 5 5 6 6 6 6 6 7 7 8 8 8 9 9 9
2 2 2 3 3 3 2 2 2 1 1 1 1 1 1 2 3 3 3 4 5 5 4 3 4 5 3 4 4 5 5 6 7 6 6 7 8 8 8 9 10 9 9 9
1 1 1 0 0 1 2 3 3 3 3 3 2 2 2 2 2 2 3 3 3 3 3 3 3 3 4 4 4 5 5 5 6 6 7 7 7 8 9 10 9 9 9 9
Wind_Direction
223 222 185 201 186 172 177 180 184 216 210 230 208 186 173 160 150 143 145 150 156 156 155 156 153 150 150 150 136 130 124 129 176 198 132 70 11 356 7 15 6 346 344 336
318 276 182 216 220 187 193 183 194 198 238 229 159 134 145 157 156 158 163 166 164 160 159 165 168 165 160 160 153 134 130 139 133 107 93 68 1 13 26 17 9 15 1 342
260 314 56 273 234 196 190 188 173 195 216 157 153 172 178 176 172 172 172 168 168 172 174 176 177 169 167 168 148 135 139 141 123 109 93 52 43 48 26 4 11 12 359 354
137 90 223 247 254 185 180 210 198 194 179 172 175 168 160 169 172 172 171 169 172 170 165 163 156 152 147 135 132 134 133 139 142 127 106 60 63 43 344 359 7 343 335 334
130 177 276 291 249 175 173 241 205 179 161 149 123 92 48 192 175 175 172 167 165 161 151 143 143 142 131 126 128 126 137 162 177 159 146 120 83 332 312 4 349 328 324 332
132 163 232 251 253 184 129 261 221 170 160 154 134 147 219 189 161 153 145 143 142 135 126 132 140 133 126 131 132 153 179 182 168 154 153 176 225 248 288 289 293 315 324 320
156 200 256 254 248 127 157 237 207 173 167 165 174 186 167 147 145 144 138 137 136 132 135 146 143 133 132 137 166 193 173 148 132 140 158 177 173 323 288 357 351 336 322 317
152 185 250 238 144 176 214 222 161 168 168 165 154 129 133 141 142 139 134 131 135 135 135 137 142 139 138 161 189 151 131 124 123 131 142 87 112 12 23 67 5 329 324 321
186 208 243 229 216 235 182 177 176 166 165 153 144 145 144 145 145 144 142 140 138 137 132 129 142 145 151 179 156 134 122 120 110 59 43 107 155 193 323 341 300 300 306 307
229 266 268 263 259 255 201 194 175 159 154 152 149 149 146 146 146 145 143 144 140 135 136 144 155 154 162 161 147 136 137 146 135 112 18 342 241 210 216 248 269 282 286 290
241 272 298 289 245 222 162 138 131 131 145 152 146 148 152 152 154 153 147 145 146 148 152 160 156 152 155 150 143 138 142 153 161 170 191 291 293 259 248 248 236 249 257 262
216 220 197 233 229 171 150 151 148 136 128 139 149 153 152 155 157 154 153 150 150 153 156 160 154 156 161 156 148 144 148 170 187 195 224 244 288 315 292 273 285 278 270 267
213 200 190 215 163 149 152 154 150 147 149 148 149 153 154 152 154 152 153 157 163 166 165 161 158 165 177 167 155 155 168 186 197 205 224 247 261 277 304 317 313 306 300 296
197 149 169 191 187 160 139 134 126 122 130 139 142 144 145 143 148 155 167 174 167 158 159 161 162 182 191 170 158 163 171 192 198 211 227 240 251 262 269 287 307 311 307 302
207 193 188 162 135 126 123 119 118 123 127 127 137 145 150 155 165 174 171 157 148 149 159 163 172 197 194 170 166 177 182 196 204 210 225 241 254 263 270 274 279 289 302 306
183 156 151 149 157 153 143 145 151 159 156 153 155 162 166 164 163 160 157 156 157 172 181 181 193 204 190 176 177 190 206 229 225 211 226 248 256 261 267 270 275 280 283 286
166 174 172 173 179 177 176 176 173 172 168 170 173 163 149 142 141 151 167 176 178 184 188 191 202 202 191 187 188 199 207 231 249 246 236 243 251 256 259 263 267 271 273 274
198 197 187 178 178 180 183 178 174 171 174 176 159 150 153 159 171 180 182 172 167 189 209 207 201 195 197 198 196 197 204 217 224 233 243 248 254 254 257 262 266 270 277 281
199 193 188 183 181 175 174 176 177 175 170 161 161 168 173 178 179 179 168 164 178 207 230 217 205 196 207 216 211 197 206 222 235 242 244 256 263 258 258 261 266 268 271 274
184 177 171 171 169 168 173 176 169 166 170 166 163 163 172 184 181 176 176 193 211 216 215 207 199 203 212 220 220 203 212 223 235 247 251 250 253 260 262 263 265 267 268 267
158 153 150 153 159 165 170 169 167 173 175 168 171 182 190 193 185 177 181 219 242 226 212 211 204 209 213 219 220 207 213 226 235 243 249 253 257 261 264 266 268 268 269 268
137 141 146 144 144 153 163 165 168 170 169 174 179 178 177 185 192 200 211 219 232 224 211 207 209 220 223 223 205 210 222 231 239 244 247 252 255 261 265 266 267 269 268 267
148 144 146 153 159 157 138 146 161 168 177 184 186 188 192 199 195 197 234 239 224 227 217 214 223 232 236 219 211 221 231 237 243 247 250 253 255 259 263 266 267 268 269 269
135 141 146 137 125 124 138 178 171 176 183 191 198 197 192 198 229 231 226 237 230 232 224 231 236 239 239 217 219 230 238 243 248 251 254 257 258 260 263 265 267 268 268 269
145 139 132 134 147 174 185 171 144 142 150 183 224 223 211 202 211 232 229 229 237 241 238 248 250 246 234 221 224 234 241 246 253 257 255 260 263 265 267 268 269 271 271 271
148 158 177 193 196 191 179 165 170 184 170 197 263 252 233 225 220 227 232 234 234 242 240 243 245 243 231 230 235 241 246 259 268 268 264 266 267 268 271 271 270 271 271 270
134 137 136 120 225 196 183 178 184 203 203 200 230 250 243 242 238 237 240 242 242 239 237 238 237 233 234 239 246 252 255 258 262 265 267 269 270 271 271 271 271 271 271 271
Height
1502 1499 1500 1500 1502 1506 1510 1513 1519 1515 1514 1508 1505 1506 1508 1510 1513 1517 1520 1522 1525 1528 1531 1534 1536 1539 1541 1542 1543 1544 1545 1545 1545 1545 1545 1545 1545 1544 1543 1542 1540 1539 1538 1537
1501 1498 1498 1501 1499 1502 1504 1506 1509 1508 1509 1502 1503 1505 1508 1510 1512 1515 1518 1521 1524 1527 1530 1532 1535 1537 1539 1541 1542 1543 1543 1544 1544 1544 1544 1543 1543 1542 1541 1540 1539 1538 1536 1535
1509 1502 1499 1506 1498 1498 1499 1499 1501 1506 1502 1500 1503 1504 1505 1508 1510 1513 1516 1519 1522 1525 1528 1531 1533 1536 1538 1539 1541 1542 1542 1542 1542 1542 1542 1542 1541 1540 1539 1538 1537 1536 1535 1533
1512 1507 1514 1502 1490 1491 1493 1494 1494 1494 1495 1496 1497 1501 1504 1506 1509 1511 1515 1518 1521 1524 1527 1530 1532 1534 1536 1538 1539 1540 1541 1541 1541 1541 1540 1540 1539 1539 1538 1536 1535 1534 1533 1532
1516 1515 1510 1497 1489 1490 1493 1494 1490 1492 1494 1496 1499 1502 1505 1507 1508 1511 1513 1517 1520 1523 1526 1528 1531 1533 1534 1536 1537 1538 1539 1539 1539 1539 1539 1538 1537 1537 1536 1535 1534 1532 1531 1530
1514 1513 1514 1497 1486 1485 1490 1495 1487 1488 1491 1495 1498 1506 1505 1504 1507 1510 1513 1516 1519 1522 1525 1527 1529 1531 1533 1534 1535 1536 1537 1537 1538 1537 1537 1536 1536 1535 1534 1533 1532 1531 1529 1528
1512 1511 1505 1488 1484 1486 1499 1494 1483 1484 1487 1491 1493 1495 1498 1502 1506 1509 1512 1515 1518 1521 1524 1526 1528 1530 1531 1532 1533 1535 1535 1536 1536 1536 1535 1535 1534 1533 1532 1531 1530 1529 1528 1526
1510 1511 1504 1483 1484 1487 1485 1480 1480 1482 1485 1488 1491 1494 1497 1501 1504 1508 1511 1514 1517 1519 1522 1525 1526 1528 1529 1530 1532 1533 1533 1534 1533 1533 1533 1532 1532 1531 1530 1529 1528 1526 1525 1524
1494 1492 1482 1480 1479 1479 1479 1479 1479 1481 1484 1487 1490 1493 1496 1500 1503 1507 1510 1513 1515 1518 1520 1523 1524 1526 1527 1529 1530 1530 1531 1531 1531 1531 1530 1530 1529 1528 1527 1526 1525 1524 1522 1521
1488 1482 1478 1477 1477 1477 1477 1478 1479 1480 1483 1486 1488 1492 1495 1499 1502 1506 1509 1512 1514 1516 1519 1521 1522 1524 1525 1526 1527 1528 1528 1528 1528 1528 1527 1527 1526 1526 1525 1523 1522 1521 1519 1518
1484 1479 1477 1475 1475 1475 1476 1477 1479 1481 1483 1485 1488 1491 1494 1498 1501 1504 1507 1510 1513 1515 1517 1519 1521 1522 1523 1524 1525 1525 1525 1525 1525 1525 1524 1524 1523 1523 1522 1521 1520 1518 1516 1515
1479 1474 1474 1473 1473 1474 1475 1476 1478 1480 1482 1485 1487 1490 1494 1497 1500 1503 1506 1509 1511 1513 1515 1517 1518 1520 1521 1522 1522 1522 1522 1522 1522 1522 1521 1520 1520 1519 1518 1518 1516 1515 1513 1511
1470 1470 1471 1472 1473 1474 1475 1476 1478 1480 1481 1484 1487 1490 1493 1495 1499 1502 1504 1507 1509 1511 1513 1515 1516 1517 1518 1519 1519 1519 1519 1519 1519 1518 1518 1517 1516 1515 1513 1513 1512 1510 1509 1506
1468 1469 1470 1470 1472 1473 1475 1476 1478 1480 1482 1484 1486 1489 1492 1495 1497 1500 1502 1505 1507 1509 1511 1512 1513 1515 1515 1516 1516 1516 1516 1516 1516 1515 1514 1513 1512 1511 1510 1508 1506 1504 1503 1502
1465 1466 1467 1468 1470 1472 1474 1476 1477 1479 1481 1484 1486 1488 1491 1493 1495 1498 1500 1503 1505 1507 1508 1509 1511 1512 1512 1513 1513 1513 1513 1513 1512 1512 1511 1510 1509 1507 1506 1504 1502 1500 1498 1496
1462 1463 1465 1466 1468 1470 1472 1474 1476 1478 1480 1482 1484 1487 1489 1491 1493 1496 1498 1500 1502 1503 1505 1506 1507 1508 1509 1509 1510 1510 1509 1509 1508 1508 1507 1506 1504 1503 1501 1499 1497 1495 1493 1491
1459 1460 1462 1463 1465 1467 1470 1472 1473 1476 1478 1480 1482 1485 1487 1489 1491 1493 1495 1497 1499 1500 1502 1503 1504 1505 1505 1505 1506 1505 1505 1505 1504 1503 1502 1501 1500 1498 1496 1494 1492 1490 1488 1487
1454 1456 1458 1459 1462 1464 1467 1469 1471 1473 1476 1478 1480 1482 1484 1486 1488 1490 1492 1494 1495 1497 1498 1499 1500 1500 1501 1501 1501 1501 1500 1500 1499 1498 1497 1496 1495 1493 1491 1489 1487 1485 1483 1481
1451 1453 1455 1457 1459 1462 1464 1466 1469 1471 1473 1475 1477 1479 1481 1483 1485 1487 1488 1490 1491 1492 1494 1495 1495 1496 1496 1496 1496 1496 1495 1495 1494 1493 1492 1491 1489 1488 1486 1484 1482 1480 1477 1475
1448 1450 1452 1454 1457 1459 1462 1464 1466 1468 1470 1472 1474 1476 1478 1480 1482 1483 1485 1486 1487 1488 1490 1490 1490 1491 1491 1491 1491 1491 1490 1489 1488 1487 1486 1485 1483 1482 1480 1478 1476 1473 1471 1469
1446 1448 1450 1452 1454 1457 1459 1461 1463 1465 1467 1469 1470 1472 1474 1476 1478 1479 1480 1481 1483 1484 1485 1486 1486 1486 1486 1486 1486 1486 1485 1484 1483 1481 1480 1478 1477 1475 1473 1471 1469 1467 1464 1462
1445 1447 1449 1451 1453 1455 1457 1459 1461 1462 1464 1466 1467 1469 1471 1472 1474 1475 1476 1478 1479 1479 1480 1480 1481 1481 1481 1481 1481 1480 1479 1478 1477 1475 1474 1472 1470 1468 1466 1464 1462 1459 1457 1454
1445 1446 1448 1450 1451 1453 1455 1456 1458 1460 1461 1463 1464 1466 1467 1468 1469 1471 1472 1473 1474 1474 1474 1475 1475 1475 1476 1475 1475 1474 1473 1471 1470 1468 1467 1465 1463 1461 1459 1456 1454 1452 1449 1446
1443 1445 1447 1448 1450 1451 1452 1454 1455 1457 1458 1460 1461 1462 1463 1464 1465 1467 1468 1468 1469 1469 1469 1469 1470 1470 1469 1469 1468 1467 1466 1465 1463 1462 1460 1458 1456 1454 1451 1449 1446 1443 1441 1438
1442 1443 1445 1446 1447 1449 1450 1451 1453 1454 1455 1456 1458 1459 1460 1461 1462 1462 1463 1464 1464 1464 1464 1464 1464 1464 1463 1462 1461 1460 1459 1458 1456 1455 1453 1450 1448 1446 1443 1441 1438 1435 1432 1429
1440 1442 1443 1444 1445 1446 1447 1449 1450 1451 1452 1453 1454 1455 1456 1457 1458 1458 1459 1459 1459 1459 1458 1458 1458 1457 1457 1456 1455 1454 1452 1451 1449 1447 1445 1443 1441 1438 1435 1432 1430 1427 1424 1421
1439 1440 1441 1442 1443 1444 1445 1446 1447 1448 1449 1450 1450 1451 1452 1453 1453 1454 1454 1454 1453 1453 1453 1452 1452 1451 1451 1450 1448 1447 1446 1444 1442 1440 1438 1435 1433 1430 1427 1424 1421 1418 1415 1412